Tiempo cada hora Dabao'anzhen

Hoy, 23 Noviembre, Lunes

Tiempo Temperatura Precipitaciones Viento Presión Humedad
00:00 -3°C° 0 mm 2 mps 776 mmHg 40%
01:00 -4°C° 0 mm 3 mps 776 mmHg 40%
02:00 -4°C° 0 mm 3 mps 776 mmHg 40%
03:00 -4°C° 0 mm 3 mps 775 mmHg 40%
04:00 -4°C° 0 mm 3 mps 775 mmHg 39%
05:00 -4°C° 0 mm 3 mps 774 mmHg 39%
06:00 -4°C° 0 mm 3 mps 774 mmHg 38%
07:00 -3°C° 0 mm 2 mps 775 mmHg 37%
08:00 -4°C° 0 mm 3 mps 775 mmHg 36%
09:00 -1°C° 0 mm 3 mps 775 mmHg 32%
10:00 -1°C° 0 mm 4 mps 775 mmHg 28%
11:00 +1°C° 0 mm 4 mps 774 mmHg 23%
12:00 +1°C° 0 mm 4 mps 774 mmHg 24%
13:00 +3°C° 0 mm 4 mps 773 mmHg 24%
14:00 +3°C° 0 mm 4 mps 772 mmHg 26%
15:00 +1°C° 0 mm 4 mps 773 mmHg 30%
16:00 +1°C° 0 mm 3 mps 773 mmHg 33%
17:00 0°C° 0 mm 3 mps 773 mmHg 37%
18:00 -1°C° 0 mm 2 mps 773 mmHg 38%
19:00 -1°C° 0 mm 2 mps 773 mmHg 39%
20:00 -1°C° 0 mm 3 mps 772 mmHg 41%
21:00 -1°C° 0 mm 2 mps 772 mmHg 41%
22:00 -1°C° 0 mm 2 mps 773 mmHg 42%
23:00 -2°C° 0 mm 2 mps 773 mmHg 43%

Mañana, 24 Noviembre, Martes

Tiempo Temperatura Precipitaciones Viento Presión Humedad
00:00 0°C° 0 mm 1 mps 773 mmHg 43%
01:00 0°C° 0 mm 1 mps 772 mmHg 43%
02:00 0°C° 0 mm 1 mps 772 mmHg 44%
03:00 0°C° 0 mm 1 mps 772 mmHg 44%
04:00 0°C° 0 mm 1 mps 771 mmHg 44%
05:00 0°C° 0 mm 1 mps 771 mmHg 44%
06:00 0°C° 0 mm 1 mps 771 mmHg 43%
07:00 0°C° 0 mm 0 mps 772 mmHg 43%
08:00 0°C° 0 mm 0 mps 772 mmHg 43%
09:00 +1°C° 0 mm 0 mps 772 mmHg 39%
10:00 +3°C° 0 mm 1 mps 771 mmHg 35%
11:00 +5°C° 0 mm 1 mps 771 mmHg 31%
12:00 +5°C° 0 mm 1 mps 771 mmHg 30%
13:00 +5°C° 0 mm 2 mps 770 mmHg 29%
14:00 +5°C° 0 mm 3 mps 769 mmHg 27%
15:00 +5°C° 0 mm 2 mps 769 mmHg 31%
16:00 +4°C° 0 mm 2 mps 769 mmHg 34%
17:00 +2°C° 0 mm 2 mps 769 mmHg 38%
18:00 +2°C° 0 mm 2 mps 769 mmHg 39%
19:00 +3°C° 0 mm 1 mps 770 mmHg 40%
20:00 +2°C° 0 mm 1 mps 770 mmHg 41%
21:00 +2°C° 0 mm 1 mps 770 mmHg 41%
22:00 +2°C° 0 mm 1 mps 770 mmHg 42%
23:00 +2°C° 0 mm 1 mps 770 mmHg 43%

Pasado mañana, 25 Noviembre, Miércoles

Tiempo Temperatura Precipitaciones Viento Presión Humedad
00:00 +1°C° 0 mm 1 mps 770 mmHg 43%
01:00 +1°C° 0 mm 1 mps 770 mmHg 43%
02:00 +1°C° 0 mm 1 mps 770 mmHg 43%
03:00 +1°C° 0 mm 1 mps 770 mmHg 43%
04:00 +1°C° 0 mm 1 mps 770 mmHg 43%
05:00 0°C° 0 mm 1 mps 770 mmHg 44%
06:00 +1°C° 0 mm 1 mps 770 mmHg 43%
07:00 +1°C° 0 mm 1 mps 771 mmHg 43%
08:00 +1°C° 0 mm 1 mps 771 mmHg 43%
09:00 +3°C° 0 mm 1 mps 771 mmHg 38%
10:00 +5°C° 0 mm 1 mps 772 mmHg 33%
11:00 +7°C° 0 mm 1 mps 772 mmHg 27%
12:00 +7°C° 0 mm 1 mps 771 mmHg 26%
13:00 +7°C° 0 mm 2 mps 771 mmHg 24%
14:00 +8°C° 0 mm 2 mps 771 mmHg 22%
15:00 +7°C° 0 mm 2 mps 771 mmHg 25%
16:00 +5°C° 0 mm 2 mps 771 mmHg 29%
17:00 +4°C° 0 mm 2 mps 772 mmHg 32%
18:00 +4°C° 0.1 mm 2 mps 772 mmHg 35%
19:00 +4°C° 0.1 mm 2 mps 773 mmHg 38%
20:00 +3°C° 0.1 mm 2 mps 773 mmHg 41%
21:00 +3°C° 0 mm 2 mps 773 mmHg 43%
22:00 +4°C° 0 mm 1 mps 774 mmHg 45%
23:00 +3°C° 0 mm 1 mps 774 mmHg 47%

26 Noviembre, Jueves

Tiempo Temperatura Precipitaciones Viento Presión Humedad
00:00 +3°C° 0 mm 1 mps 774 mmHg 48%
01:00 +2°C° 0 mm 1 mps 774 mmHg 49%
02:00 +2°C° 0 mm 1 mps 774 mmHg 50%
03:00 +1°C° 0 mm 1 mps 774 mmHg 49%
04:00 -1°C° 0 mm 2 mps 774 mmHg 49%
05:00 -2°C° 0 mm 2 mps 774 mmHg 49%
06:00 -2°C° 0 mm 2 mps 775 mmHg 48%
07:00 -1°C° 0 mm 2 mps 775 mmHg 47%
08:00 +1°C° 0 mm 1 mps 775 mmHg 45%
09:00 +1°C° 0 mm 2 mps 775 mmHg 40%
10:00 +2°C° 0 mm 2 mps 775 mmHg 34%
11:00 +3°C° 0 mm 2 mps 775 mmHg 29%
12:00 +4°C° 0 mm 2 mps 775 mmHg 28%
13:00 +4°C° 0 mm 2 mps 774 mmHg 28%
14:00 +5°C° 0 mm 1 mps 774 mmHg 28%
15:00 +5°C° 0 mm 1 mps 774 mmHg 31%
16:00 +4°C° 0 mm 1 mps 774 mmHg 34%
17:00 +3°C° 0 mm 1 mps 774 mmHg 37%
18:00 +2°C° 0 mm 0 mps 774 mmHg 38%
19:00 +2°C° 0 mm 0 mps 774 mmHg 39%
20:00 +1°C° 0 mm 0 mps 774 mmHg 41%
21:00 +1°C° 0 mm 0 mps 774 mmHg 42%
22:00 +1°C° 0 mm 0 mps 775 mmHg 43%
23:00 +1°C° 0 mm 0 mps 775 mmHg 44%

27 Noviembre, Viernes

Tiempo Temperatura Precipitaciones Viento Presión Humedad
00:00 0°C° 0 mm 0 mps 775 mmHg 46%
01:00 +1°C° 0 mm 1 mps 775 mmHg 49%
02:00 +1°C° 0 mm 1 mps 775 mmHg 51%
03:00 0°C° 0 mm 1 mps 775 mmHg 53%
04:00 0°C° 0 mm 1 mps 775 mmHg 54%
05:00 0°C° 0 mm 1 mps 775 mmHg 56%
06:00 -2°C° 0 mm 2 mps 776 mmHg 52%
07:00 -2°C° 0 mm 2 mps 776 mmHg 49%
08:00 -2°C° 0 mm 3 mps 776 mmHg 46%
09:00 0°C° 0 mm 3 mps 777 mmHg 41%
10:00 +1°C° 0 mm 3 mps 777 mmHg 36%
11:00 +2°C° 0 mm 3 mps 777 mmHg 31%
12:00 +3°C° 0 mm 3 mps 777 mmHg 30%
13:00 +3°C° 0 mm 3 mps 776 mmHg 29%
14:00 +3°C° 0 mm 3 mps 776 mmHg 28%
15:00 +2°C° 0 mm 3 mps 776 mmHg 31%
16:00 +1°C° 0 mm 3 mps 777 mmHg 34%
17:00 +1°C° 0 mm 3 mps 777 mmHg 37%
18:00 +1°C° 0 mm 2 mps 777 mmHg 39%
19:00 -1°C° 0 mm 2 mps 777 mmHg 41%
20:00 -1°C° 0 mm 2 mps 778 mmHg 43%
21:00 -2°C° 0 mm 2 mps 778 mmHg 44%
22:00 -2°C° 0 mm 2 mps 778 mmHg 44%
23:00 -2°C° 0 mm 3 mps 779 mmHg 45%

28 Noviembre, Sábado

Tiempo Temperatura Precipitaciones Viento Presión Humedad
00:00 -2°C° 0 mm 3 mps 779 mmHg 44%
01:00 -4°C° 0 mm 3 mps 778 mmHg 43%
02:00 -3°C° 0 mm 2 mps 778 mmHg 42%
03:00 -4°C° 0 mm 3 mps 778 mmHg 42%
04:00 -4°C° 0 mm 3 mps 778 mmHg 41%
05:00 -5°C° 0 mm 3 mps 778 mmHg 40%
06:00 -4°C° 0 mm 3 mps 778 mmHg 40%
07:00 -4°C° 0 mm 3 mps 779 mmHg 39%
08:00 -4°C° 0 mm 3 mps 779 mmHg 38%
09:00 -2°C° 0 mm 3 mps 779 mmHg 34%
10:00 -1°C° 0 mm 3 mps 779 mmHg 29%
11:00 +1°C° 0 mm 3 mps 778 mmHg 25%
12:00 +1°C° 0 mm 3 mps 778 mmHg 25%
13:00 0°C° 0 mm 4 mps 777 mmHg 25%
14:00 0°C° 0 mm 4 mps 776 mmHg 25%
15:00 0°C° 0 mm 3 mps 776 mmHg 28%
16:00 -1°C° 0 mm 3 mps 776 mmHg 31%
17:00 -2°C° 0 mm 2 mps 775 mmHg 34%
18:00 -2°C° 0 mm 2 mps 775 mmHg 35%
19:00 0°C° 0 mm 1 mps 775 mmHg 36%
20:00 -1°C° 0 mm 1 mps 775 mmHg 37%
21:00 -1°C° 0 mm 1 mps 775 mmHg 38%
22:00 -1°C° 0 mm 1 mps 775 mmHg 38%
23:00 -1°C° 0 mm 1 mps 775 mmHg 38%
Mostrar más

Necesitamos Su Consentimiento

Meteoprog y nuestros Proveedores de Servicios pueden almacenar y acceder a sus datos personales como cookies, identificadores de dispositivo u otras tecnologías similares de su dispositivo y procesar dichos datos para personalizar contenido y anuncios, además de ofrecer funciones de redes sociales y analizar el tráfico.

  • Almacenar y/o acceder a información en su dispositivo

    Se puede almacenar o acceder a cookies, identificadores de dispositivo u otra información de su dispositivo para los fines anteriormente indicados.

  • Anuncios y contenido personalizados, medición de anuncios y contenido, percepciones del público, y desarrollo de productos

    Los anuncios y el contenido pueden personalizarse en base a su perfil. Se pueden añadir más datos para personalizar mejor los anuncios y contenidos. Se puede medir el rendimiento de los anuncios y contenidos. Se puede obtener la percepción sobre el público que ha visto los anuncios y contenidos. Dichos datos pueden usarse para desarrollar o mejorar la experiencia del usuario, sistemas y software.

Al hacer clic en ‘Estoy De Acuerdo’ usted permitirá el uso de las cookies, identificadores de dispositivo, balizas web u otras tecnologías similares indicadas. Su configuración puede cambiarse desde el navegador de su dispositivo.

Para ciertos fines, los intereses legítimos pueden ser considerados por encima del consentimiento. Puede leer más sobre ello en nuestra Política de Privacidad y Cookies.